Regional Weather Roundup
Issued by NWS

Home | Current Version | Previous Version | Graphics & Text | Print | Product List | Glossary On
Versions: 1 2 3 4 5 6 7 8 9 10 11 12 13 14 15 16 17 18 19 20 21 22 23 24 25 26 27 28 29 30 31 32 33 34 35 36 37 38 39 40 41 42 43 44 45 46 47 48 49 50
370
ASUS45 KBOU 281507
RWRCO

WEATHER ROUNDUP FOR COLORADO
NATIONAL WEATHER SERVICE DENVER/BOULDER CO
900 AM MDT SUN AUG 28 2016

NOTE: "FAIR" INDICATES FEW OR NO CLOUDS BELOW 12000 FEET WITH NO
SIGNIFICANT WEATHER AND/OR OBSTRUCTIONS TO VISIBILITY.

COZ001>005-013-030-031-281600-
...NORTHWEST COLORADO...

CITY           SKY/WX    TMP DP  RH WIND       PRES   REMARKS
CRAIG          FAIR      58  38  47 CALM      30.31S
HAYDEN         FAIR      54  34  47 E12       30.33S
MEEKER         FAIR      57  41  55 CALM      30.32S
MOUNT WERNER   NOT AVBL
STEAMBOAT SPGS FAIR      50  36  60 CALM      30.35S
WALDEN         FAIR      50  34  53 CALM      30.42S
$$

COZ006>008-011-281600-
...WEST CENTRAL VALLEYS...

CITY           SKY/WX    TMP DP  RH WIND       PRES   REMARKS
GRAND JUNCTION PTSUNNY   62  49  62 S3        30.25R
MONTROSE       CLOUDY    60  46  59 SW3       30.31S
EAGLE          MOSUNNY   55  43  62 CALM      30.37R
RIFLE          FAIR      57  49  74 CALM      30.30R
DELTA          NOT AVBL
NUCLA          PTSUNNY  N/A N/A N/A N5        30.37R
$$

COZ017>023-064>068-281600-
...SOUTHWEST COLORADO...

CITY           SKY/WX    TMP DP  RH WIND       PRES   REMARKS
DURANGO        FAIR      55  46  71 E5        30.35S
CORTEZ         PTSUNNY   57  51  80 SW5       30.31R
PAGOSA SPRINGS FAIR      53  44  71 CALM      30.42S
TELLURIDE      PTSUNNY   49  44  83 CALM      30.49R
WOLF CREEK PAS FAIR      39  36  87 SW10      30.64R
$$

COZ009-010-012-014-032>034-037-058>063-281600-
...CENTRAL COLORADO...

CITY           SKY/WX    TMP DP  RH WIND       PRES   REMARKS
ASPEN          FAIR      53  43  68 CALM      30.39R
BUENA VISTA    PTSUNNY   52  42  68 NW5       30.40S
COPPER MTN     CLOUDY    46  32  57 CALM      30.62R
BERTHOUD PASS  CLOUDY    37  27  65 N9        30.65S
COTTONWOOD PAS PTSUNNY   54  36  50 CALM      30.50R
GUNNISON       CLOUDY    50  43  76 CALM      30.44R
KREMMLING      FAIR      50  36  57 CALM      30.41S
LEADVILLE      LGT RAIN  46  38  73 CALM      30.49R
MONARCH PASS   PTSUNNY   45  36  70 E3        30.71R
SALIDA         CLOUDY    56  44  62 N3        30.45S
SUNLIGHT       CLOUDY    46  41  81 SE5       30.58R
WILKERSON PASS CLOUDY    45  34  65 SE6       30.61R
$$

COZ069>075-281600-
...SAN LUIS VALLEY/SANGRE DE CRISTO MOUNTAINS...

CITY           SKY/WX    TMP DP  RH WIND       PRES   REMARKS
ALAMOSA        FAIR      55  44  66 CALM      30.39S
LA VETA PASS   FAIR      46  37  71 SW6       30.49R
SAGUACHE       FAIR      54  41  62 NW7       30.41R
$$

COZ035-036-038>040-281600-
...NORTHERN COLORADO FRONT RANGE...

CITY           SKY/WX    TMP DP  RH WIND       PRES   REMARKS
DENVER INTL AP PTSUNNY   74  35  24 NW12      30.19S
DMNS CITY PARK   N/A     67  48  49 W1G7      30.20S
AURORA         PTSUNNY   69  43  38 NW9       30.20F
FRONT RANGE AP NOT AVBL
ERIE MUNI ARPT NOT AVBL
BOULDER MUN AP PTSUNNY   64  45  48 CALM      30.20R
CENTENNIAL     PTSUNNY   69  41  36 W12       30.21F
BROOMFIELD     MOSUNNY   66  41  39 CALM      30.22R
FORT COLLINS   FAIR      66  39  37 E3        30.18R
LONGMONT       FAIR      69  44  41 CALM      30.21R
$$

COZ041-046-047-076>085-087-088-281600-
...PIKES PEAK/PALMER DIVIDE AND SOUTHERN FOOTHILLS...

CITY           SKY/WX    TMP DP  RH WIND       PRES   REMARKS
COLO. SPRINGS  PTSUNNY   67  51  56 W8        30.26R
A. F. ACADEMY  FAIR      64  49  57 N3        30.26S
SCHRIEVER AFB  NOT AVBL
ELLICOTT       NOT AVBL
FALCON         FAIR      67  47  48 CALM      30.30S
FORT CARSON    FAIR      66  50  56 NW8       30.22S
LIMON          FAIR      67  54  63 VRB3      30.19S
MONUMENT HILL  FAIR      63  45  51 W7        30.31R
TRINIDAD       FAIR      70  49  47 W13       30.21S
$$

COZ042>045-048>051-090-091-281600-
...NORTHEAST COLORADO...

CITY           SKY/WX    TMP DP  RH WIND       PRES   REMARKS
GREELEY ARPT   FAIR      63  52  67 SW5       30.18R
AKRON          FAIR      74  50  42 SW10      30.14F
BURLINGTON     FAIR      72  54  53 SW13      30.14S
WRAY           FAIR      70  55  60 SW6       30.11S
STERLING       FAIR      68  55  64 SW6       30.11S
HOLYOKE        FAIR      70  61  73 SW5       30.11S
FORT MORGAN    FAIR      68  49  50 W6        30.15S
$$

COZ086-089-092>099-281600-
...SOUTHEAST COLORADO...

CITY           SKY/WX    TMP DP  RH WIND       PRES   REMARKS
PUEBLO         FAIR      71  56  58 W8        30.16S
LA JUNTA       FAIR      72  53  51 W7        30.13R
LAMAR          FAIR      72  58  61 SW12      30.10S
SPRINGFIELD      N/A     65  61  87 S13       30.16R
$$




USA.gov is the U.S. government's official web portal to all federal, state and local government web resources and services.